Buffalo, NY

2:19 PM EST on December 07, 2019 (GMT -0500)
Buffalo Niagara International

Weather History for KBUF - July, 2019

Change the Weather History Date:

Saturday, July 13, 2019

  Actual Average Record
Temperature  
Mean Temperature 72 °F 71 °F  
Max Temperature 83 °F 80 °F 94 °F (2005)
Min Temperature 61 °F 63 °F 49 °F (1888)
Degree Days  
Heating Degree Days 0 0  
Month to date heating degree days 0 2  
Since 1 June heating degree days 62 66  
Since 1 July heating degree days 0 2  
Cooling Degree Days 7 7  
Month to date cooling degree days 108 80  
Year to date cooling degree days 191 209  
Since 1 June cooling degree days 183 183  
Growing Degree Days 22 (Base 50)    
Moisture  
Dew Point 62 °F    
Average Humidity 70    
Maximum Humidity 97    
Minimum Humidity 43    
Precipitation  
Precipitation 0.00 in 0.10 in 2.29 in (2017)
Month to date precipitation 0.62 1.28  
Year to date precipitation 23.54 19.95  
Snow  
Snow 0.00 in 0.00 in 0.00 in ()
Month to date snowfall 0.0 0.0  
Since 1 June snowfall 0.0 0.0  
Since 1 July snowfall 0.0 0.0  
Snow Depth 0.00 in    
Sea Level Pressure  
Sea Level Pressure 29.93 in    
Wind  
Wind Speed 12 mph (SW)    
Max Wind Speed 25 mph    
Max Gust Speed 34 mph    
Visibility 10 miles    
Events      
T = Trace of Precipitation, MM = Missing Value Source: NWS Daily Summary

Daily Weather History Graph

Daily Weather History Graph

Search for Another Location

Airport or City:

Astronomy

Jul. 13, 2019 Rise Set
Actual Time 5:47 AM EDT 8:53 PM EDT
Civil Twilight 5:13 AM EDT 9:27 PM EDT
Nautical Twilight 4:29 AM EDT 10:11 PM EDT
Astronomical Twilight 3:37 AM EDT 11:03 PM EDT
Moon 6:13 PM EDT (7/13) 3:08 AM EDT (7/13)
Length of Visible Light 16h 13m
Length of Day
15h 05m
Waxing Gibbous, 90% of the Moon is Illuminated
Jul 13
Waxing Gibbous
Jul 16
Full
Jul 24
Last Quarter
Jul 31
New
Aug 7
First Quarter

Hourly Weather History & Observations

Time (EDT) Temp. Heat Index Dew Point Humidity Pressure Visibility Wind Dir Wind Speed Gust Speed Precip Events Conditions
12:54 AM 64.9 °F - 57.0 °F 75% 29.91 in 10.0 mi SSW 5.8 mph - N/A   Scattered Clouds
1:54 AM 63.0 °F - 57.9 °F 84% 29.93 in 10.0 mi SSW 5.8 mph - N/A   Partly Cloudy
2:54 AM 62.1 °F - 59.0 °F 90% 29.94 in 10.0 mi South 6.9 mph - N/A   Partly Cloudy
3:54 AM 62.1 °F - 59.0 °F 90% 29.94 in 10.0 mi SSW 5.8 mph - N/A   Partly Cloudy
4:54 AM 62.1 °F - 59.0 °F 90% 29.94 in 10.0 mi SSW 5.8 mph - N/A   Partly Cloudy
5:54 AM 61.0 °F - 59.0 °F 93% 29.95 in 7.0 mi SSW 5.8 mph - N/A   Partly Cloudy
6:39 AM 63.0 °F - 61.0 °F 93% 29.96 in 6.0 mi SSW 6.9 mph - N/A   Scattered Clouds
6:54 AM 64.0 °F - 62.1 °F 93% 29.96 in 6.0 mi SSW 6.9 mph - N/A   Scattered Clouds
7:54 AM 68.0 °F - 64.0 °F 87% 29.96 in 8.0 mi SSW 9.2 mph - N/A   Partly Cloudy
8:54 AM 72.0 °F - 64.0 °F 76% 29.96 in 10.0 mi WSW 10.4 mph - N/A   Partly Cloudy
9:54 AM 73.9 °F - 62.1 °F 66% 29.95 in 10.0 mi SW 15.0 mph - N/A   Partly Cloudy
10:54 AM 75.0 °F - 61.0 °F 62% 29.95 in 10.0 mi SW 13.8 mph - N/A   Partly Cloudy
11:54 AM 77.0 °F - 62.1 °F 60% 29.94 in 10.0 mi SW 18.4 mph 23.0 mph N/A   Partly Cloudy
12:54 PM 78.1 °F - 62.1 °F 58% 29.94 in 10.0 mi WSW 19.6 mph 27.6 mph N/A   Partly Cloudy
1:54 PM 79.0 °F - 62.1 °F 56% 29.94 in 10.0 mi WSW 23.0 mph 29.9 mph N/A   Partly Cloudy
2:54 PM 80.1 °F 80.9 °F 60.1 °F 50% 29.92 in 10.0 mi WSW 17.3 mph 28.8 mph N/A   Scattered Clouds
3:54 PM 82.0 °F 82.0 °F 57.9 °F 44% 29.91 in 10.0 mi SW 18.4 mph - N/A   Partly Cloudy
4:54 PM 81.0 °F 81.3 °F 59.0 °F 47% 29.90 in 10.0 mi SW 17.3 mph 32.2 mph N/A   Mostly Cloudy
5:54 PM 78.1 °F - 61.0 °F 56% 29.90 in 10.0 mi SW 21.9 mph 31.1 mph N/A   Overcast
6:54 PM 79.0 °F - 63.0 °F 58% 29.89 in 10.0 mi SW 16.1 mph 24.2 mph N/A   Mostly Cloudy
7:54 PM 77.0 °F - 64.0 °F 64% 29.89 in 10.0 mi WSW 13.8 mph - N/A   Mostly Cloudy
8:54 PM 75.0 °F - 64.9 °F 71% 29.89 in 10.0 mi WSW 9.2 mph - N/A   Mostly Cloudy
9:54 PM 73.9 °F - 66.0 °F 76% 29.90 in 10.0 mi SW 5.8 mph - N/A   Mostly Cloudy
10:54 PM 73.0 °F - 66.9 °F 81% 29.91 in 10.0 mi SW 9.2 mph - N/A   Scattered Clouds
11:54 PM 73.0 °F - 66.9 °F 81% 29.91 in 10.0 mi WSW 3.5 mph - N/A   Scattered Clouds